Guantanamo Bay NAS, Cuba

6:37 AM CDT on May 25, 2017 (GMT -0400)
Guantanamo Bay Naval Air Station

Weather History for MUGM - April, 2017

Change the Weather History Date:

Friday, April 21, 2017

  Actual Average Record
Temperature  
Mean Temperature 77 °F -  
Max Temperature 84 °F 84 °F 91 °F (2015)
Min Temperature 72 °F 72 °F 69 °F (2003)
Cooling Degree Days 12    
Growing Degree Days 27 (Base 50)    
Moisture  
Dew Point 71 °F    
Average Humidity 82    
Maximum Humidity 97    
Minimum Humidity 67    
Precipitation  
Precipitation 0.11 in - - ()
Sea Level Pressure  
Sea Level Pressure 29.94 in    
Wind  
Wind Speed 9 mph ()    
Max Wind Speed 23 mph    
Max Gust Speed -    
Visibility 6.2 miles    
Events Rain    
Averages and records for this station are not official NWS values.
T = Trace of Precipitation, MM = Missing Value Source: Averaged Metar Reports

Daily Weather History Graph

Daily Weather History Graph

Search for Another Location

Airport or City:

Trip Planner

Search our weather history database for the weather conditions in past years. The results will help you decide how hot, cold, wet, or windy it might be!

Date:

Astronomy

Apr. 21, 2017 Rise Set
Actual Time 6:38 AM CDT 7:20 PM CDT
Civil Twilight 6:15 AM CDT 7:43 PM CDT
Nautical Twilight 5:48 AM CDT 8:10 PM CDT
Astronomical Twilight 5:21 AM CDT 8:37 PM CDT
Moon 3:03 AM CDT (4/21) 2:49 PM CDT (4/21)
Length of Visible Light 13h 28m
Length of Day
12h 42m
Waning Crescent, 28% of the Moon is Illuminated
Apr 21
Waning Crescent
Apr 26
New
May 2
First Quarter
May 10
Full
May 18
Last Quarter

Hourly Weather History & Observations

Time (CDT) Temp. Heat Index Dew Point Humidity Pressure Visibility Wind Dir Wind Speed Gust Speed Precip Events Conditions
12:56 AM 73.9 °F - 68.0 °F 82% 29.96 in 6.2 mi NNW 5.8 mph - N/A   Scattered Clouds
1:56 AM 73.0 °F - 68.0 °F 84% 29.95 in 6.2 mi NW 8.1 mph - N/A   Scattered Clouds
2:56 AM 73.0 °F - 66.9 °F 81% 29.92 in 6.2 mi NW 5.8 mph - N/A   Scattered Clouds
3:56 AM 73.0 °F - 66.9 °F 81% 29.92 in 6.2 mi NW 5.8 mph - N/A   Partly Cloudy
4:56 AM 72.0 °F - 68.0 °F 87% 29.92 in 6.2 mi NNW 4.6 mph - N/A   Mostly Cloudy
5:56 AM 73.0 °F - 69.1 °F 87% 29.94 in 6.2 mi North 5.8 mph - N/A   Mostly Cloudy
6:56 AM 72.0 °F - 69.1 °F 91% 29.95 in 6.2 mi NNW 5.8 mph - N/A   Mostly Cloudy
7:56 AM 73.9 °F - 70.0 °F 87% 29.97 in 6.2 mi North 5.8 mph - N/A   Mostly Cloudy
8:56 AM 79.0 °F - 70.0 °F 74% 29.96 in 6.2 mi North 8.1 mph - N/A   Scattered Clouds
9:56 AM 82.0 °F 85.9 °F 70.0 °F 67% 29.97 in 6.2 mi North 5.8 mph - N/A   Mostly Cloudy
10:56 AM 82.9 °F 88.0 °F 72.0 °F 69% 29.97 in 6.2 mi East 18.4 mph - N/A   Mostly Cloudy
11:56 AM 82.9 °F 88.8 °F 73.0 °F 72% 29.96 in 6.2 mi ESE 18.4 mph - N/A   Mostly Cloudy
12:56 PM 82.0 °F 86.7 °F 72.0 °F 71% 29.96 in 6.2 mi ESE 17.3 mph - N/A   Mostly Cloudy
1:56 PM 80.1 °F 85.1 °F 75.0 °F 85% 29.93 in 6.2 mi ESE 19.6 mph - 0.00 in Rain Light Rain
2:56 PM 82.0 °F 86.7 °F 72.0 °F 71% 29.90 in 6.2 mi East 23.0 mph - 0.00 in   Mostly Cloudy
3:56 PM 82.0 °F 87.4 °F 73.0 °F 74% 29.88 in 6.2 mi East 17.3 mph - N/A   Mostly Cloudy
4:56 PM 81.0 °F 85.8 °F 73.0 °F 77% 29.88 in 6.2 mi ESE 16.1 mph - N/A   Mostly Cloudy
5:56 PM 80.1 °F 85.1 °F 75.0 °F 85% 29.89 in 6.2 mi ESE 16.1 mph - N/A   Overcast
6:56 PM 79.0 °F - 73.9 °F 84% 29.90 in 6.2 mi East 11.5 mph - 0.00 in   Overcast
7:56 PM 78.1 °F - 73.0 °F 84% 29.92 in 6.2 mi ENE 10.4 mph - N/A   Mostly Cloudy
8:56 PM 75.9 °F - 73.9 °F 94% 29.94 in 6.2 mi ENE 12.7 mph - 0.00 in Rain Light Rain
9:56 PM 75.0 °F - 73.9 °F 96% 29.96 in 6.2 mi North 10.4 mph - 0.03 in Rain Light Rain
10:56 PM 75.0 °F - 73.9 °F 96% 29.97 in 6.2 mi North 6.9 mph - 0.04 in Rain Light Rain
11:56 PM 73.9 °F - 73.0 °F 97% 29.97 in 6.2 mi NNW 8.1 mph - 0.04 in Rain Light Rain